^^

Weather Underground History

Daily Summary for February 7, 2018 Units:  Metric    English   Both
Daily Weekly Monthly Yearly
  High: Low: Average:
Temperature: 4 °C -1 °C 0.9 °C
Dew Point: 1 °C -3 °C -1 °C
Humidity: 93% 78% 88%
Wind Speed: 19km/h 0km/h 4.7km/h
Wind Gust: 26km/h - -
Wind- - ENE
Pressure: 1030.8 hPa 1024.4 hPa -
Precipitation: 0.0 mm    
 
 
Tabular Data for February 7, 2018
Time Temperature Dew Point Pressure Wind Wind Speed Wind Gust Humidity Rainfall Rate (Hourly) solar
00:02 1 °C -1 °C 1024.4 hPa Calm   5 km/h 90% 0.0 mm 0 W/m2
00:07 1 °C -1 °C 1024.4 hPa NE 3 km/h 5 km/h 90% 0.0 mm 0 W/m2
00:14 1 °C -1 °C 1024.4 hPa Calm   2 km/h 90% 0.0 mm 0 W/m2
00:20 1 °C -1 °C 1024.4 hPa NE 3 km/h 3 km/h 90% 0.0 mm 0 W/m2
00:26 1 °C -1 °C 1024.4 hPa NE 3 km/h 6 km/h 90% 0.0 mm 0 W/m2
00:31 1 °C -1 °C 1024.4 hPa NNE 2 km/h 8 km/h 90% 0.0 mm 0 W/m2
00:36 1 °C -1 °C 1024.7 hPa Calm   6 km/h 90% 0.0 mm 0 W/m2
00:43 1 °C -1 °C 1024.7 hPa Calm   8 km/h 90% 0.0 mm 0 W/m2
00:48 1 °C -1 °C 1024.7 hPa Calm   13 km/h 91% 0.0 mm 0 W/m2
00:53 1 °C -1 °C 1024.7 hPa NE 6 km/h 11 km/h 91% 0.0 mm 0 W/m2
00:56 1 °C -1 °C 1024.7 hPa NE 2 km/h 8 km/h 91% 0.0 mm 0 W/m2
01:01 1 °C -1 °C 1024.7 hPa Calm     91% 0.0 mm 0 W/m2
01:06 1 °C -1 °C 1024.7 hPa NE 3 km/h 8 km/h 91% 0.0 mm 0 W/m2
01:11 1 °C -1 °C 1024.7 hPa Calm   5 km/h 91% 0.0 mm 0 W/m2
01:16 1 °C -1 °C 1024.7 hPa NE 5 km/h 5 km/h 91% 0.0 mm 0 W/m2
01:21 1 °C -1 °C 1025.1 hPa Calm   6 km/h 91% 0.0 mm 0 W/m2
01:26 1 °C -1 °C 1025.1 hPa NE 3 km/h 8 km/h 91% 0.0 mm 0 W/m2
01:31 1 °C -1 °C 1025.1 hPa Calm   5 km/h 91% 0.0 mm 0 W/m2
01:36 1 °C -1 °C 1025.4 hPa North 5 km/h 8 km/h 91% 0.0 mm 0 W/m2
01:41 1 °C -1 °C 1025.4 hPa NE 5 km/h 8 km/h 91% 0.0 mm 0 W/m2
01:47 1 °C -1 °C 1025.4 hPa NE 5 km/h 8 km/h 91% 0.0 mm 0 W/m2
01:52 1 °C -1 °C 1025.4 hPa North 3 km/h 10 km/h 91% 0.0 mm 0 W/m2
01:58 1 °C -1 °C 1025.4 hPa NE 3 km/h 10 km/h 91% 0.0 mm 0 W/m2
02:03 1 °C -1 °C 1025.4 hPa NNE 8 km/h 8 km/h 91% 0.0 mm 0 W/m2
02:08 1 °C -1 °C 1025.4 hPa NNE 2 km/h 10 km/h 91% 0.0 mm 0 W/m2
02:17 1 °C -1 °C 1025.7 hPa NE 10 km/h 10 km/h 91% 0.0 mm 0 W/m2
02:23 1 °C -1 °C 1025.7 hPa NNE 3 km/h 14 km/h 91% 0.0 mm 0 W/m2
02:29 1 °C 0 °C 1025.7 hPa NE 2 km/h 11 km/h 92% 0.0 mm 0 W/m2
02:34 1 °C 0 °C 1025.7 hPa North 14 km/h 14 km/h 92% 0.0 mm 0 W/m2
02:39 1 °C 0 °C 1025.7 hPa North 6 km/h 10 km/h 92% 0.0 mm 0 W/m2
02:42 1 °C 0 °C 1025.7 hPa NE 6 km/h 13 km/h 92% 0.0 mm 0 W/m2
02:47 1 °C 0 °C 1026.1 hPa Calm   6 km/h 91% 0.0 mm 0 W/m2
02:50 1 °C 0 °C 1026.1 hPa Calm   11 km/h 91% 0.0 mm 0 W/m2
02:55 1 °C 0 °C 1026.1 hPa NNE 8 km/h 8 km/h 91% 0.0 mm 0 W/m2
03:04 1 °C 0 °C 1026.1 hPa North 6 km/h 11 km/h 91% 0.0 mm 0 W/m2
03:09 1 °C 0 °C 1026.1 hPa NNE 6 km/h 10 km/h 91% 0.0 mm 0 W/m2
03:13 1 °C 0 °C 1026.1 hPa NE 3 km/h 10 km/h 91% 0.0 mm 0 W/m2
03:18 1 °C 0 °C 1026.1 hPa ENE 5 km/h 10 km/h 91% 0.0 mm 0 W/m2
03:23 1 °C 0 °C 1026.1 hPa Calm   8 km/h 91% 0.0 mm 0 W/m2
03:28 1 °C 0 °C 1026.1 hPa Calm   11 km/h 91% 0.0 mm 0 W/m2
03:35 1 °C -1 °C 1026.4 hPa ENE 2 km/h 8 km/h 91% 0.0 mm 0 W/m2
03:40 1 °C -1 °C 1026.4 hPa Calm   8 km/h 91% 0.0 mm 0 W/m2
03:47 1 °C -1 °C 1026.4 hPa NE 3 km/h 8 km/h 91% 0.0 mm 0 W/m2
03:54 1 °C -1 °C 1026.8 hPa NE 1 km/h 10 km/h 91% 0.0 mm 0 W/m2
03:59 1 °C -1 °C 1026.4 hPa NE 3 km/h 6 km/h 91% 0.0 mm 0 W/m2
04:04 1 °C -1 °C 1026.8 hPa NE 5 km/h 6 km/h 91% 0.0 mm 0 W/m2
04:09 1 °C -1 °C 1026.8 hPa ENE 5 km/h 5 km/h 91% 0.0 mm 0 W/m2
04:14 1 °C -1 °C 1026.8 hPa ENE 5 km/h 6 km/h 92% 0.0 mm 0 W/m2
04:19 1 °C -1 °C 1026.8 hPa ENE 3 km/h 6 km/h 92% 0.0 mm 0 W/m2
04:24 1 °C -1 °C 1026.8 hPa Calm   6 km/h 92% 0.0 mm 0 W/m2
04:29 1 °C -1 °C 1026.8 hPa East 6 km/h 6 km/h 92% 0.0 mm 0 W/m2
04:34 1 °C -1 °C 1026.8 hPa Calm   11 km/h 92% 0.0 mm 0 W/m2
04:36 1 °C -1 °C 1026.8 hPa Calm   8 km/h 92% 0.0 mm 0 W/m2
04:41 1 °C -1 °C 1026.8 hPa NE 5 km/h 6 km/h 92% 0.0 mm 0 W/m2
04:46 1 °C -1 °C 1026.8 hPa ENE 3 km/h 8 km/h 92% 0.0 mm 0 W/m2
04:52 1 °C -1 °C 1026.8 hPa NE 2 km/h 8 km/h 92% 0.0 mm 0 W/m2
04:57 1 °C -1 °C 1026.8 hPa Calm   8 km/h 92% 0.0 mm 0 W/m2
05:02 1 °C -1 °C 1026.8 hPa Calm   8 km/h 92% 0.0 mm 0 W/m2
05:07 1 °C -1 °C 1027.1 hPa NE 3 km/h 11 km/h 92% 0.0 mm 0 W/m2
05:13 0 °C -1 °C 1027.1 hPa Calm   5 km/h 92% 0.0 mm 0 W/m2
05:18 0 °C -1 °C 1027.1 hPa Calm   3 km/h 92% 0.0 mm 0 W/m2
05:23 0 °C -1 °C 1027.1 hPa Calm   3 km/h 92% 0.0 mm 0 W/m2
05:28 0 °C -1 °C 1027.1 hPa ENE 2 km/h 5 km/h 92% 0.0 mm 0 W/m2
05:33 0 °C -1 °C 1027.1 hPa NE 2 km/h 5 km/h 92% 0.0 mm 0 W/m2
05:39 0 °C -1 °C 1027.1 hPa NE 2 km/h 3 km/h 92% 0.0 mm 0 W/m2
05:42 0 °C -1 °C 1027.4 hPa ENE 3 km/h 5 km/h 92% 0.0 mm 0 W/m2
05:47 0 °C -1 °C 1027.4 hPa East 3 km/h 8 km/h 92% 0.0 mm 0 W/m2
05:51 0 °C -1 °C 1027.4 hPa East 3 km/h 5 km/h 92% 0.0 mm 0 W/m2
05:59 0 °C -1 °C 1027.4 hPa Calm   10 km/h 92% 0.0 mm 0 W/m2
06:04 0 °C -1 °C 1027.4 hPa Calm     92% 0.0 mm 0 W/m2
06:09 0 °C -1 °C 1027.8 hPa NNE 3 km/h 8 km/h 92% 0.0 mm 0 W/m2
06:14 0 °C -1 °C 1027.8 hPa Calm     92% 0.0 mm 0 W/m2
06:19 0 °C -1 °C 1027.8 hPa Calm     92% 0.0 mm 0 W/m2
06:24 0 °C -1 °C 1027.8 hPa Calm     93% 0.0 mm 0 W/m2
06:29 0 °C -1 °C 1028.1 hPa Calm     93% 0.0 mm 0 W/m2
06:34 0 °C -1 °C 1028.1 hPa ENE 2 km/h 6 km/h 92% 0.0 mm 0 W/m2
06:39 0 °C -1 °C 1028.1 hPa ENE 2 km/h 5 km/h 92% 0.0 mm 0 W/m2
06:44 0 °C -1 °C 1028.1 hPa ENE 3 km/h 5 km/h 93% 0.0 mm 0 W/m2
06:49 0 °C -1 °C 1028.1 hPa ENE 2 km/h 5 km/h 93% 0.0 mm 0 W/m2
06:54 0 °C -1 °C 1028.1 hPa Calm   6 km/h 93% 0.0 mm 0 W/m2
06:59 -1 °C -1 °C 1028.5 hPa ENE 3 km/h 3 km/h 93% 0.0 mm 0 W/m2
07:04 -1 °C -2 °C 1028.8 hPa Calm   2 km/h 92% 0.0 mm 0 W/m2
07:09 -1 °C -2 °C 1028.8 hPa Calm     92% 0.0 mm 0 W/m2
07:14 -1 °C -2 °C 1028.5 hPa ENE 5 km/h 8 km/h 92% 0.0 mm 0 W/m2
07:19 -1 °C -1 °C 1028.8 hPa Calm   2 km/h 93% 0.0 mm 0 W/m2
07:24 -1 °C -1 °C 1028.8 hPa NE 2 km/h 6 km/h 93% 0.0 mm 0 W/m2
07:29 -1 °C -1 °C 1028.8 hPa Calm   10 km/h 93% 0.0 mm 0 W/m2
07:34 0 °C -1 °C 1028.8 hPa NNE 10 km/h 10 km/h 93% 0.0 mm 0 W/m2
07:39 0 °C -1 °C 1028.8 hPa NE 8 km/h 11 km/h 93% 0.0 mm 0 W/m2
07:45 0 °C -1 °C 1028.8 hPa NE 5 km/h 5 km/h 93% 0.0 mm 0 W/m2
07:54 0 °C -1 °C 1029.1 hPa NE 1 km/h 10 km/h 93% 0.0 mm 0 W/m2
07:55 0 °C -1 °C 1029.1 hPa NE 2 km/h 3 km/h 93% 0.0 mm 0 W/m2
08:00 0 °C -1 °C 1029.1 hPa Calm   10 km/h 93% 0.0 mm 0 W/m2
08:06 0 °C -1 °C 1029.1 hPa NE 8 km/h 8 km/h 93% 0.0 mm 0 W/m2
08:11 0 °C -1 °C 1029.5 hPa NE 2 km/h 5 km/h 93% 0.0 mm 0 W/m2
08:16 0 °C -1 °C 1029.5 hPa Calm   6 km/h 92% 0.0 mm 0 W/m2
08:24 0 °C -2 °C 1029.5 hPa NE 2 km/h 11 km/h 92% 0.0 mm 5 W/m2
08:29 -1 °C -2 °C 1029.5 hPa ENE 8 km/h 8 km/h 92% 0.0 mm 7 W/m2
08:34 -1 °C -2 °C 1029.5 hPa Calm   6 km/h 92% 0.0 mm 9 W/m2
08:35 -1 °C -2 °C 1029.5 hPa East 3 km/h 8 km/h 92% 0.0 mm 9 W/m2
08:40 -1 °C -2 °C 1029.5 hPa NE 3 km/h 3 km/h 92% 0.0 mm 12 W/m2
08:49 -1 °C -2 °C 1029.5 hPa ENE 3 km/h 6 km/h 92% 0.0 mm 16 W/m2
08:53 -1 °C -2 °C 1029.8 hPa NE 5 km/h 8 km/h 92% 0.0 mm 16 W/m2
08:58 -1 °C -2 °C 1029.8 hPa NE 3 km/h 3 km/h 92% 0.0 mm 21 W/m2
09:01 -1 °C -2 °C 1029.8 hPa Calm   6 km/h 92% 0.0 mm 39 W/m2
09:08 -1 °C -2 °C 1029.8 hPa ENE 3 km/h 8 km/h 92% 0.0 mm 54 W/m2
09:13 0 °C -1 °C 1030.1 hPa ENE 2 km/h 6 km/h 92% 0.0 mm 30 W/m2
09:18 0 °C -1 °C 1030.1 hPa Calm   10 km/h 92% 0.0 mm 23 W/m2
09:23 0 °C -1 °C 1030.1 hPa ENE 3 km/h 10 km/h 92% 0.0 mm 25 W/m2
09:26 0 °C -1 °C 1030.1 hPa ESE 3 km/h 6 km/h 92% 0.0 mm 30 W/m2
09:31 0 °C -1 °C 1030.1 hPa ENE 10 km/h 10 km/h 92% 0.0 mm 46 W/m2
09:38 0 °C -1 °C 1030.1 hPa NE 7 km/h 11 km/h 92% 0.0 mm 79 W/m2
09:43 1 °C -1 °C 1030.1 hPa NE 8 km/h 8 km/h 92% 0.0 mm 44 W/m2
09:48 1 °C -1 °C 1030.5 hPa ENE 3 km/h 10 km/h 91% 0.0 mm 81 W/m2
09:54 1 °C -1 °C 1030.5 hPa ENE 5 km/h 11 km/h 91% 0.0 mm 30 W/m2
09:59 1 °C -1 °C 1030.1 hPa Calm   10 km/h 90% 0.0 mm 40 W/m2
10:04 1 °C -1 °C 1030.5 hPa ENE 5 km/h 13 km/h 90% 0.0 mm 72 W/m2
10:06 1 °C -1 °C 1030.5 hPa East 5 km/h 6 km/h 90% 0.0 mm 93 W/m2
10:13 1 °C -1 °C 1030.5 hPa ENE 4 km/h 10 km/h 90% 0.0 mm 84 W/m2
10:18 1 °C -1 °C 1030.5 hPa Calm   5 km/h 90% 0.0 mm 72 W/m2
10:23 1 °C -1 °C 1030.5 hPa Calm   10 km/h 90% 0.0 mm 172 W/m2
10:26 1 °C -1 °C 1030.8 hPa Calm   11 km/h 90% 0.0 mm 163 W/m2
10:33 1 °C -1 °C 1030.8 hPa NE 7 km/h 10 km/h 89% 0.0 mm 172 W/m2
10:38 1 °C -1 °C 1030.8 hPa NE 6 km/h 10 km/h 89% 0.0 mm 214 W/m2
10:42 1 °C -1 °C 1030.8 hPa NE 3 km/h 8 km/h 89% 0.0 mm 214 W/m2
10:49 2 °C -1 °C 1030.5 hPa NE 2 km/h 10 km/h 88% 0.0 mm 111 W/m2
10:50 2 °C -1 °C 1030.5 hPa Calm   8 km/h 88% 0.0 mm 88 W/m2
10:58 2 °C -1 °C 1030.5 hPa NE 2 km/h 8 km/h 87% 0.0 mm 192 W/m2
11:03 2 °C -1 °C 1030.5 hPa NE 6 km/h 13 km/h 87% 0.0 mm 199 W/m2
11:08 2 °C 0 °C 1030.5 hPa ENE 10 km/h 11 km/h 87% 0.0 mm 202 W/m2
11:13 2 °C 0 °C 1030.5 hPa NE 2 km/h 10 km/h 87% 0.0 mm 206 W/m2
11:15 2 °C 0 °C 1030.5 hPa East 3 km/h 8 km/h 87% 0.0 mm 206 W/m2
11:22 2 °C 0 °C 1030.5 hPa ENE 7 km/h 11 km/h 86% 0.0 mm 213 W/m2
11:28 2 °C 0 °C 1030.5 hPa NE 9 km/h 13 km/h 85% 0.0 mm 218 W/m2
11:33 2 °C 0 °C 1030.5 hPa NE 11 km/h 13 km/h 84% 0.0 mm 223 W/m2
11:36 3 °C 0 °C 1030.5 hPa ENE 8 km/h 8 km/h 84% 0.0 mm 227 W/m2
11:41 3 °C 0 °C 1030.1 hPa NE 2 km/h 13 km/h 83% 0.0 mm 230 W/m2
11:47 3 °C 0 °C 1030.1 hPa NE 10 km/h 11 km/h 83% 0.0 mm 232 W/m2
11:52 3 °C 0 °C 1030.1 hPa ENE 3 km/h 11 km/h 82% 0.0 mm 236 W/m2
12:00 3 °C 0 °C 1030.1 hPa ENE 3 km/h 10 km/h 80% 0.0 mm 239 W/m2
12:07 3 °C 0 °C 1030.1 hPa ENE 8 km/h 18 km/h 80% 0.0 mm 243 W/m2
12:13 3 °C 0 °C 1030.1 hPa ENE 14 km/h 16 km/h 79% 0.0 mm 246 W/m2
12:18 3 °C 0 °C 1029.8 hPa ENE 6 km/h 21 km/h 78% 0.0 mm 246 W/m2
12:23 3 °C 0 °C 1029.8 hPa ENE 8 km/h 18 km/h 78% 0.0 mm 248 W/m2
12:25 3 °C 0 °C 1029.8 hPa NE 11 km/h 18 km/h 79% 0.0 mm 246 W/m2
12:33 3 °C 0 °C 1029.8 hPa East 7 km/h 23 km/h 78% 0.0 mm 246 W/m2
12:39 3 °C 0 °C 1029.8 hPa ENE 10 km/h 24 km/h 78% 0.0 mm 246 W/m2
12:44 3 °C 0 °C 1029.8 hPa East 14 km/h 16 km/h 78% 0.0 mm 244 W/m2
12:49 3 °C 0 °C 1029.8 hPa East 3 km/h 13 km/h 78% 0.0 mm 243 W/m2
12:54 3 °C 0 °C 1029.8 hPa ENE 11 km/h 21 km/h 78% 0.0 mm 239 W/m2
12:56 3 °C 0 °C 1029.8 hPa ENE 6 km/h 14 km/h 78% 0.0 mm 237 W/m2
13:01 3 °C 0 °C 1029.8 hPa NNE 11 km/h 19 km/h 78% 0.0 mm 232 W/m2
13:07 3 °C 0 °C 1029.8 hPa East 8 km/h 16 km/h 78% 0.0 mm 229 W/m2
13:12 3 °C 0 °C 1029.8 hPa NE 13 km/h 14 km/h 78% 0.0 mm 223 W/m2
13:17 4 °C 0 °C 1029.8 hPa East 10 km/h 11 km/h 78% 0.0 mm 218 W/m2
13:22 4 °C 0 °C 1029.8 hPa ENE 6 km/h 8 km/h 78% 0.0 mm 211 W/m2
13:27 4 °C 0 °C 1029.8 hPa ENE 8 km/h 14 km/h 78% 0.0 mm 207 W/m2
13:32 4 °C 0 °C 1029.5 hPa ENE 8 km/h 13 km/h 78% 0.0 mm 202 W/m2
13:37 4 °C 0 °C 1029.5 hPa ENE 11 km/h 19 km/h 78% 0.0 mm 193 W/m2
13:44 3 °C 0 °C 1029.5 hPa ENE 15 km/h 21 km/h 78% 0.0 mm 190 W/m2
13:49 4 °C 1 °C 1029.5 hPa ENE 8 km/h 10 km/h 79% 0.0 mm 179 W/m2
13:50 4 °C 1 °C 1029.5 hPa NE 14 km/h 14 km/h 79% 0.0 mm 176 W/m2
13:55 4 °C 1 °C 1029.5 hPa NE 19 km/h 19 km/h 79% 0.0 mm 171 W/m2
14:00 4 °C 0 °C 1029.5 hPa ENE 5 km/h 26 km/h 78% 0.0 mm 163 W/m2
14:05 4 °C 1 °C 1029.5 hPa ENE 11 km/h 21 km/h 79% 0.0 mm 155 W/m2
14:11 3 °C 1 °C 1029.5 hPa ENE 2 km/h 16 km/h 79% 0.0 mm 148 W/m2
14:16 4 °C 1 °C 1029.5 hPa ENE 11 km/h 13 km/h 79% 0.0 mm 137 W/m2
14:20 3 °C 1 °C 1029.5 hPa ENE 11 km/h 16 km/h 79% 0.0 mm 130 W/m2
14:30 3 °C 0 °C 1029.5 hPa ENE 8 km/h 21 km/h 79% 0.0 mm 113 W/m2
14:35 3 °C 1 °C 1029.5 hPa East 8 km/h 11 km/h 80% 0.0 mm 105 W/m2
14:41 3 °C 1 °C 1029.5 hPa NE 7 km/h 16 km/h 80% 0.0 mm 97 W/m2
14:46 3 °C 0 °C 1029.5 hPa East 8 km/h 18 km/h 80% 0.0 mm 86 W/m2
14:51 3 °C 0 °C 1029.5 hPa ENE 10 km/h 18 km/h 80% 0.0 mm 77 W/m2
14:56 3 °C 0 °C 1029.5 hPa East 2 km/h 13 km/h 80% 0.0 mm 67 W/m2
15:01 3 °C 1 °C 1029.5 hPa ENE 8 km/h 21 km/h 81% 0.0 mm 62 W/m2
15:09 3 °C 0 °C 1029.5 hPa ENE 8 km/h 16 km/h 81% 0.0 mm 54 W/m2
15:14 3 °C 0 °C 1029.5 hPa ENE 10 km/h 13 km/h 81% 0.0 mm 40 W/m2
15:19 3 °C 0 °C 1029.5 hPa ENE 5 km/h 10 km/h 81% 0.0 mm 35 W/m2
15:22 3 °C 0 °C 1029.5 hPa East 8 km/h 8 km/h 82% 0.0 mm 32 W/m2
15:28 3 °C 0 °C 1029.5 hPa NE 8 km/h 16 km/h 82% 0.0 mm 26 W/m2
15:33 3 °C 0 °C 1029.5 hPa ENE 5 km/h 6 km/h 82% 0.0 mm 21 W/m2
15:38 3 °C 0 °C 1029.5 hPa ENE 2 km/h 11 km/h 82% 0.0 mm 18 W/m2
15:43 3 °C 0 °C 1029.5 hPa ENE 6 km/h 16 km/h 83% 0.0 mm 16 W/m2
15:47 2 °C 0 °C 1029.5 hPa NE 11 km/h 11 km/h 83% 0.0 mm 14 W/m2
15:52 2 °C -1 °C 1029.5 hPa East 6 km/h 13 km/h 83% 0.0 mm 11 W/m2
15:56 2 °C 0 °C 1029.5 hPa East 6 km/h 11 km/h 84% 0.0 mm 9 W/m2
16:01 2 °C -1 °C 1029.8 hPa ENE 6 km/h 6 km/h 84% 0.0 mm 7 W/m2
16:09 2 °C -1 °C 1029.8 hPa ENE 5 km/h 10 km/h 84% 0.0 mm 5 W/m2
16:14 2 °C -1 °C 1029.8 hPa East 3 km/h 8 km/h 85% 0.0 mm 0 W/m2
16:19 2 °C -1 °C 1029.8 hPa NE 10 km/h 10 km/h 85% 0.0 mm 0 W/m2
16:24 2 °C -1 °C 1029.8 hPa East 6 km/h 11 km/h 85% 0.0 mm 0 W/m2
16:29 2 °C -1 °C 1029.8 hPa ENE 5 km/h 6 km/h 86% 0.0 mm 0 W/m2
16:34 2 °C -1 °C 1029.8 hPa ENE 5 km/h 8 km/h 86% 0.0 mm 0 W/m2
16:36 2 °C -1 °C 1029.8 hPa ENE 6 km/h 10 km/h 86% 0.0 mm 0 W/m2
16:41 2 °C -1 °C 1029.8 hPa East 5 km/h 10 km/h 86% 0.0 mm 0 W/m2
16:46 1 °C -1 °C 1029.8 hPa NE 6 km/h 10 km/h 87% 0.0 mm 0 W/m2
16:51 1 °C -1 °C 1029.8 hPa ENE 8 km/h 11 km/h 87% 0.0 mm 0 W/m2
16:56 1 °C -1 °C 1029.8 hPa ENE 5 km/h 6 km/h 87% 0.0 mm 0 W/m2
17:01 1 °C -1 °C 1029.8 hPa NE 3 km/h 10 km/h 87% 0.0 mm 0 W/m2
17:05 1 °C -1 °C 1029.8 hPa East 10 km/h 10 km/h 87% 0.0 mm 0 W/m2
17:10 1 °C -1 °C 1029.8 hPa East 5 km/h 11 km/h 87% 0.0 mm 0 W/m2
17:19 1 °C -1 °C 1029.8 hPa ENE 6 km/h 10 km/h 87% 0.0 mm 0 W/m2
17:24 1 °C -1 °C 1029.8 hPa ENE 3 km/h 8 km/h 88% 0.0 mm 0 W/m2
17:29 1 °C -1 °C 1029.8 hPa ENE 5 km/h 5 km/h 88% 0.0 mm 0 W/m2
17:31 1 °C -1 °C 1029.8 hPa ENE 5 km/h 8 km/h 88% 0.0 mm 0 W/m2
17:36 1 °C -1 °C 1030.1 hPa East 6 km/h 11 km/h 88% 0.0 mm 0 W/m2
17:41 1 °C -1 °C 1029.8 hPa ENE 5 km/h 8 km/h 88% 0.0 mm 0 W/m2
17:47 1 °C -1 °C 1029.8 hPa ENE 4 km/h 6 km/h 88% 0.0 mm 0 W/m2
17:52 1 °C -1 °C 1029.8 hPa ENE 10 km/h 10 km/h 88% 0.0 mm 0 W/m2
17:57 1 °C -1 °C 1029.8 hPa ENE 8 km/h 8 km/h 88% 0.0 mm 0 W/m2
18:04 1 °C -1 °C 1029.8 hPa ENE 7 km/h 10 km/h 88% 0.0 mm 0 W/m2
18:09 1 °C -1 °C 1029.8 hPa East 8 km/h 10 km/h 88% 0.0 mm 0 W/m2
18:14 1 °C -1 °C 1029.8 hPa ENE 5 km/h 10 km/h 88% 0.0 mm 0 W/m2
18:19 1 °C -1 °C 1029.8 hPa ENE 8 km/h 8 km/h 88% 0.0 mm 0 W/m2
18:24 1 °C -1 °C 1029.8 hPa ENE 3 km/h 6 km/h 88% 0.0 mm 0 W/m2
18:29 1 °C -1 °C 1029.8 hPa ENE 6 km/h 11 km/h 88% 0.0 mm 0 W/m2
18:34 1 °C -1 °C 1029.8 hPa ENE 6 km/h 10 km/h 89% 0.0 mm 0 W/m2
18:38 1 °C -1 °C 1029.8 hPa NE 5 km/h 6 km/h 89% 0.0 mm 0 W/m2
18:43 1 °C -1 °C 1029.8 hPa ENE 5 km/h 10 km/h 89% 0.0 mm 0 W/m2
18:47 1 °C -1 °C 1029.8 hPa ENE 3 km/h 8 km/h 89% 0.0 mm 0 W/m2
18:52 0 °C -1 °C 1029.8 hPa NE 10 km/h 11 km/h 89% 0.0 mm 0 W/m2
19:02 0 °C -2 °C 1029.8 hPa ENE 5 km/h 10 km/h 89% 0.0 mm 0 W/m2
19:07 0 °C -2 °C 1029.8 hPa East 3 km/h 8 km/h 89% 0.0 mm 0 W/m2
19:12 0 °C -2 °C 1029.8 hPa ENE 6 km/h 10 km/h 89% 0.0 mm 0 W/m2
19:17 0 °C -1 °C 1029.8 hPa East 6 km/h 8 km/h 90% 0.0 mm 0 W/m2
19:22 0 °C -1 °C 1029.8 hPa ENE 6 km/h 11 km/h 90% 0.0 mm 0 W/m2
19:28 0 °C -1 °C 1029.5 hPa East 6 km/h 18 km/h 90% 0.0 mm 0 W/m2
19:33 0 °C -1 °C 1029.5 hPa ENE 6 km/h 11 km/h 90% 0.0 mm 0 W/m2
19:37 0 °C -1 °C 1029.5 hPa East 2 km/h 6 km/h 90% 0.0 mm 0 W/m2
19:42 0 °C -1 °C 1029.5 hPa East 6 km/h 8 km/h 90% 0.0 mm 0 W/m2
19:47 0 °C -1 °C 1029.5 hPa ENE 5 km/h 8 km/h 90% 0.0 mm 0 W/m2
19:52 0 °C -2 °C 1029.5 hPa ENE 5 km/h 10 km/h 90% 0.0 mm 0 W/m2
19:57 0 °C -2 °C 1029.5 hPa ENE 6 km/h 10 km/h 89% 0.0 mm 0 W/m2
20:03 0 °C -2 °C 1029.5 hPa ENE 4 km/h 8 km/h 89% 0.0 mm 0 W/m2
20:08 0 °C -2 °C 1029.5 hPa East 5 km/h 10 km/h 90% 0.0 mm 0 W/m2
20:13 0 °C -2 °C 1029.5 hPa ENE 3 km/h 13 km/h 90% 0.0 mm 0 W/m2
20:18 0 °C -2 °C 1029.8 hPa East 5 km/h 10 km/h 90% 0.0 mm 0 W/m2
20:21 0 °C -2 °C 1029.8 hPa ENE 6 km/h 11 km/h 90% 0.0 mm 0 W/m2
20:26 0 °C -2 °C 1029.5 hPa ENE 6 km/h 10 km/h 90% 0.0 mm 0 W/m2
20:31 0 °C -2 °C 1029.5 hPa ENE 5 km/h 8 km/h 90% 0.0 mm 0 W/m2
20:36 -1 °C -2 °C 1029.5 hPa ENE 3 km/h 10 km/h 90% 0.0 mm 0 W/m2
20:41 -1 °C -2 °C 1029.5 hPa ENE 6 km/h 8 km/h 90% 0.0 mm 0 W/m2
20:45 -1 °C -2 °C 1029.5 hPa East 6 km/h 11 km/h 90% 0.0 mm 0 W/m2
20:50 -1 °C -2 °C 1029.8 hPa NE 5 km/h 14 km/h 90% 0.0 mm 0 W/m2
20:56 -1 °C -2 °C 1029.5 hPa ENE 6 km/h 13 km/h 90% 0.0 mm 0 W/m2
21:01 -1 °C -2 °C 1029.8 hPa ENE 6 km/h 11 km/h 90% 0.0 mm 0 W/m2
21:06 -1 °C -2 °C 1029.5 hPa NE 2 km/h 8 km/h 90% 0.0 mm 0 W/m2
21:11 -1 °C -2 °C 1029.5 hPa ENE 8 km/h 10 km/h 90% 0.0 mm 0 W/m2
21:16 -1 °C -2 °C 1029.8 hPa ENE 5 km/h 10 km/h 90% 0.0 mm 0 W/m2
21:20 -1 °C -2 °C 1029.8 hPa ENE 8 km/h 8 km/h 90% 0.0 mm 0 W/m2
21:26 -1 °C -2 °C 1029.8 hPa ENE 5 km/h 11 km/h 90% 0.0 mm 0 W/m2
21:32 -1 °C -2 °C 1029.5 hPa ENE 8 km/h 10 km/h 90% 0.0 mm 0 W/m2
21:37 -1 °C -2 °C 1029.5 hPa ENE 3 km/h 16 km/h 90% 0.0 mm 0 W/m2
21:42 -1 °C -2 °C 1029.5 hPa ENE 3 km/h 10 km/h 90% 0.0 mm 0 W/m2
21:45 -1 °C -2 °C 1029.5 hPa ENE 8 km/h 13 km/h 90% 0.0 mm 0 W/m2
21:51 -1 °C -2 °C 1029.1 hPa ENE 7 km/h 10 km/h 90% 0.0 mm 0 W/m2
21:55 -1 °C -2 °C 1029.1 hPa ENE 6 km/h 10 km/h 90% 0.0 mm 0 W/m2
22:04 -1 °C -2 °C 1029.1 hPa ENE 3 km/h 10 km/h 90% 0.0 mm 0 W/m2
22:09 -1 °C -2 °C 1029.1 hPa ENE 5 km/h 11 km/h 90% 0.0 mm 0 W/m2
22:12 -1 °C -2 °C 1029.1 hPa NE 5 km/h 10 km/h 90% 0.0 mm 0 W/m2
22:17 -1 °C -2 °C 1029.1 hPa ENE 5 km/h 10 km/h 90% 0.0 mm 0 W/m2
22:22 -1 °C -2 °C 1029.1 hPa ENE 5 km/h 10 km/h 90% 0.0 mm 0 W/m2
22:25 -1 °C -2 °C 1029.1 hPa ENE 6 km/h 8 km/h 90% 0.0 mm 0 W/m2
22:30 -1 °C -2 °C 1029.1 hPa ENE 5 km/h 8 km/h 90% 0.0 mm 0 W/m2
22:35 -1 °C -2 °C 1029.5 hPa ENE 2 km/h 3 km/h 90% 0.0 mm 0 W/m2
22:41 -1 °C -2 °C 1029.5 hPa Calm   3 km/h 90% 0.0 mm 0 W/m2
22:46 -1 °C -2 °C 1029.5 hPa ENE 2 km/h 10 km/h 90% 0.0 mm 0 W/m2
22:51 -1 °C -2 °C 1029.5 hPa ENE 8 km/h 8 km/h 90% 0.0 mm 0 W/m2
22:55 -1 °C -2 °C 1029.1 hPa ENE 2 km/h 5 km/h 90% 0.0 mm 0 W/m2
23:05 -1 °C -2 °C 1029.1 hPa ENE 2 km/h 6 km/h 90% 0.0 mm 0 W/m2
23:10 -1 °C -2 °C 1029.5 hPa NE 2 km/h 10 km/h 90% 0.0 mm 0 W/m2
23:16 -1 °C -2 °C 1029.5 hPa NE 5 km/h 8 km/h 90% 0.0 mm 0 W/m2
23:21 -1 °C -3 °C 1029.1 hPa NE 6 km/h 6 km/h 90% 0.0 mm 0 W/m2
23:26 -1 °C -3 °C 1029.1 hPa Calm   6 km/h 90% 0.0 mm 0 W/m2
23:31 -1 °C -3 °C 1029.1 hPa ENE 6 km/h 8 km/h 90% 0.0 mm 0 W/m2
23:36 -1 °C -3 °C 1029.1 hPa ENE 5 km/h 6 km/h 90% 0.0 mm 0 W/m2
23:41 -1 °C -3 °C 1029.1 hPa NE 5 km/h 13 km/h 90% 0.0 mm 0 W/m2
23:46 -1 °C -3 °C 1029.1 hPa ENE 6 km/h 8 km/h 90% 0.0 mm 0 W/m2
23:52 -1 °C -3 °C 1028.8 hPa ENE 6 km/h 13 km/h 89% 0.0 mm 0 W/m2
Compliments of Weather Underground - 4 mb